Find Starlink 30758

NORAD ID: 58133 Int'l Des: 2023-162 Owner: SPXS Country: US Constellation: starlink operational
LEOCIRCULAR

リアルタイム位置

3D地球を読み込み中...

Starlink 30758について

説明を読み込み中...

次回通過

Passes for default location (London). Set your location on the main map for personalized predictions.

高度履歴

Loading altitude history...

軌道要素

1 58133U 23162R 26106.73310941 -.00000229 00000-0 11962-5 0 9995
2 58133 43.0045 274.3742 0001901 263.5626 96.5009 15.27577787138162
Epoch: Apr 16, 2026 • Age: 16 hours

現在のステータス

高度 485.6 km
速度 7.63 km/s
衛星直下点 34.90°N, 49.58°E
打ち上げ日 Oct 22, 2023
運用期間 2.4 years
タイプ internet

技術仕様

分類 Payload
質量 730.00 kg
乾燥質量 700.00 kg
総質量 730.00 kg
長さ 0.30 m
直径 4.10 m
スパン 29.00 m
形状 Box + pan
製造者 SPXS
バスタイプ Starlink V2M
フェーズステータス In Orbit
所有者/国 SPXS/US

Most Searched